Glendive, MT

11:08 PM MDT on October 23, 2019 (GMT -0600)
Dawson Community

Weather History for KGDV - September, 2019

Change the Weather History Date:

Saturday, September 21, 2019

  Actual Average Record
Temperature  
Mean Temperature 54 °F 59 °F  
Max Temperature 62 °F 73 °F 84 °F (2008)
Min Temperature 45 °F 45 °F 18 °F (1995)
Degree Days  
Heating Degree Days 11 6  
Month to date heating degree days 92 36  
Year to date heating degree days 5740 4328  
Since 1 July heating degree days 174 36  
Cooling Degree Days 0 0  
Month to date cooling degree days 39 6  
Year to date cooling degree days 465 382  
Since 1 July cooling degree days 465 382  
Growing Degree Days 3 (Base 50)    
Moisture  
Dew Point 49 °F    
Average Humidity 87    
Maximum Humidity 97    
Minimum Humidity 64    
Precipitation  
Precipitation 0.32 in 0.05 in 0.39 in (2016)
Month to date precipitation 4.94 0.86  
Year to date precipitation 16.01 11.25  
Sea Level Pressure  
Sea Level Pressure 29.85 in    
Wind  
Wind Speed 11 mph (NW)    
Max Wind Speed 21 mph    
Max Gust Speed 26 mph    
Visibility 10 miles    
Events Rain    
T = Trace of Precipitation, MM = Missing Value Source: NWS Daily Summary

Daily Weather History Graph

Daily Weather History Graph

Search for Another Location

Airport or City:

Astronomy

Sep. 21, 2019 Rise Set
Actual Time 6:44 AM MDT 6:59 PM MDT
Civil Twilight 6:13 AM MDT 7:29 PM MDT
Nautical Twilight 5:38 AM MDT 8:05 PM MDT
Astronomical Twilight 5:00 AM MDT 8:42 PM MDT
Moon 11:13 PM MDT (9/21) 2:18 PM MDT (9/21)
Length of Visible Light 13h 15m
Length of Day
12h 14m
Waning Gibbous, 54% of the Moon is Illuminated
Sep 21
Waning Gibbous
Sep 21
Last Quarter
Sep 28
New
Oct 5
First Quarter
Oct 13
Full

Hourly Weather History & Observations

Time (MDT) Temp. Windchill Dew Point Humidity Pressure Visibility Wind Dir Wind Speed Gust Speed Precip Events Conditions
12:56 AM 53.1 °F - 52.0 °F 96% 29.77 in 10.0 mi NW 8.1 mph - N/A   Scattered Clouds
1:56 AM 54.0 °F - 51.1 °F 90% 29.75 in 10.0 mi NW 11.5 mph - N/A   Overcast
2:56 AM 54.0 °F - 52.0 °F 93% 29.74 in 10.0 mi NW 10.4 mph - N/A   Overcast
3:35 AM 53.6 °F - 51.8 °F 94% 29.77 in 10.0 mi NW 12.7 mph - N/A   Overcast
3:56 AM 54.0 °F - 52.0 °F 93% 29.75 in 10.0 mi NW 9.2 mph - N/A   Overcast
4:44 AM 53.6 °F - 51.8 °F 94% 29.76 in 10.0 mi NNW 11.5 mph - N/A   Overcast
4:56 AM 54.0 °F - 51.1 °F 90% 29.75 in 10.0 mi NW 11.5 mph - N/A   Overcast
5:21 AM 53.6 °F - 51.8 °F 94% 29.76 in 10.0 mi NW 10.4 mph - N/A   Overcast
5:56 AM 54.0 °F - 51.1 °F 90% 29.76 in 10.0 mi WNW 8.1 mph - N/A   Overcast
6:56 AM 54.0 °F - 51.1 °F 90% 29.77 in 10.0 mi NW 10.4 mph - N/A   Overcast
7:42 AM 53.6 °F - 51.8 °F 94% 29.79 in 10.0 mi NW 11.5 mph - N/A   Overcast
7:56 AM 54.0 °F - 52.0 °F 93% 29.79 in 10.0 mi NW 11.5 mph - N/A   Overcast
8:56 AM 52.0 °F - 50.0 °F 93% 29.81 in 6.0 mi NW 15.0 mph - 0.05 in Rain Light Rain
9:56 AM 52.0 °F - 51.1 °F 97% 29.84 in 10.0 mi NNW 11.5 mph - 0.15 in Rain Rain
10:56 AM 53.1 °F - 51.1 °F 93% 29.86 in 10.0 mi NW 20.7 mph 25.3 mph 0.03 in Rain Light Rain
11:56 AM 53.1 °F - 50.0 °F 89% 29.89 in 10.0 mi NNW 19.6 mph 26.5 mph 0.00 in Rain Light Rain
12:56 PM 52.0 °F - 50.0 °F 93% 29.91 in 10.0 mi NNW 13.8 mph - 0.06 in Rain Light Rain
1:56 PM 54.0 °F - 51.1 °F 90% 29.90 in 10.0 mi NW 13.8 mph - 0.03 in   Mostly Cloudy
2:54 PM 57.2 °F - 50.0 °F 77% 29.91 in 10.0 mi NW 11.5 mph - N/A   Mostly Cloudy
2:56 PM 57.9 °F - 50.0 °F 75% 29.91 in 10.0 mi WNW 11.5 mph - N/A   Mostly Cloudy
3:56 PM 59.0 °F - 48.9 °F 69% 29.91 in 10.0 mi West 11.5 mph - N/A   Mostly Cloudy
4:56 PM 60.1 °F - 48.9 °F 67% 29.91 in 10.0 mi West 8.1 mph - 0.00 in   Mostly Cloudy
5:56 PM 59.0 °F - 46.9 °F 64% 29.92 in 10.0 mi West 11.5 mph - N/A   Scattered Clouds
6:56 PM 55.9 °F - 46.0 °F 69% 29.94 in 10.0 mi West 3.5 mph - N/A   Overcast
7:56 PM 51.1 °F - 45.0 °F 80% 29.96 in 10.0 mi West 5.8 mph - N/A   Clear
8:56 PM 46.9 °F - 43.0 °F 86% 29.97 in 10.0 mi West 6.9 mph - N/A   Clear
9:56 PM 46.0 °F 42.5 °F 43.0 °F 89% 29.97 in 10.0 mi West 6.9 mph - N/A   Clear
10:56 PM 46.0 °F 43.1 °F 42.1 °F 86% 29.95 in 10.0 mi West 5.8 mph - N/A   Clear
11:56 PM 45.0 °F 41.2 °F 41.0 °F 86% 29.95 in 10.0 mi WNW 6.9 mph - N/A   Clear